Location: Newark
(22.3060°N, 114.2134°E)
Time: 02:58:24
(UTC+00:00)

Vanguard 2 - Pass Details

Date: 03 August 2021
Orbit: 553 x 2937 km, 32.9° (Epoch: 27 September)

Event Time Altitude Azimuth Distance (km) Brightness Sun altitude
Rises 05:18:34 0° 264° (W) 4,995 11.8 77.5°
Reaches altitude 10° 05:23:24 10° 245° (WSW) 4,451 11.8 76.4°
Maximum altitude 05:30:28 17° 211° (SSW) 4,462 11.8 74.8°
Drops below altitude 10° 05:39:02 10° 178° (S) 5,480 12.1 72.9°
Sets 05:46:25 0° 161° (SSE) 6,727 12.3 71.3°
